www.pogodaiklimat.ru

Погода и климат >> Архив погоды >> Бангладеш >> Кокс-Базар


ПОГОДА в Кокс-Базаре

  • Прогноз погоды в Кокс-Базаре
  • Монитор погоды в Кокс-Базаре

АРХИВ ПОГОДЫ в Кокс-Базаре

Время (UTC), дата Ветер
(напр.,м/с)
 
Видим.   Явления Облачность Т
(С)
Тd
(С)
f
(%)
Тe
(С)
Тes
(С)
Комфортность P
(гПа)
Po
(гПа)
Тmin
(С)
Tmax
(С)
R
(мм)
R24
(мм)
S
(см)
00 9.06 штиль 0 2000 м дождь {гроза} 10/6 240 м
[Cb cap As op]
+25.7 +25.0 96 +37 +37 очень
душно
1003.4 1003.2 24
03 9.06 Ю 1 2000 м слаб. дождь 10/6 210 м
[Cb cap As op]
+28.2 +26.0 88 +42 +44 опасность
перегрева
1004.1 1003.9 +24.6
06 9.06 Ю 1 2000 м слаб. дождь {гроза} 10/6 240 м
[Cb cap As op]
+27.2 +25.0 88 +39 +41 очень
душно
1004.1 1003.9 4
09 9.06 штиль 0 2000 м слаб. дождь 10/6 240 м
[Cb cap As op]
+26.0 +25.0 94 +37 +38 очень
душно
1002.8 1002.6 2
12 9.06 штиль 0 2000 м слаб. дождь 10/6 240 м
[Cb cap As op]
+27.5 +26.0 92 +41 +41 опасность
перегрева
1000.6 1000.4 +29.7 2
15 9.06 штиль 0 2500 м мгла 9/5 480 м
[Sc Ac trans]
+26.8 +25.0 90 +39 +39 очень
душно
1002.8 1002.6
18 9.06 штиль 0 2500 м мгла 4/3 480 м
[Sc Ac trans]
+26.3 +24.0 87 +36 +36 очень
душно
1002.7 1002.5
21 9.06 штиль 0 2500 м мгла 6/4 480 м
[Sc Ac trans]
+26.5 +25.0 91 +38 +38 очень
душно
1002.3 1002.1
00 10.06 штиль 0 2500 м мгла 9/5 480 м
[Sc Ac trans]
+26.8 +25.0 90 +39 +39 очень
душно
1001.9 1001.6
03 10.06 ЮВ 3 3000 м мгла ясно +30.0 +25.0 75 +43 +55 опасность
перегрева
1002.3 1002.1 +25.8
06 10.06 ЮВ 3 4000 м мгла 4/4 480 м
[Sc]
+32.0 +27.0 75 +50 +62 опасность
перегрева
1002.0 1001.7 180
09 10.06 Ю 5 4000 м мгла 8/4 480 м
[Sc Ac trans]
+32.4 +25.0 65 +46 +48 опасность
перегрева
1000.8 1000.5
12 10.06 ЮВ 3 3000 м мгла 9/5 480 м
[Sc Ac trans]
+30.0 +27.0 84 +47 +47 опасность
перегрева
1000.1 999.8 +32.5
15 10.06 штиль 0 2500 м мгла 4/0
[Ac trans]
+28.4 +26.0 87 +43 +43 опасность
перегрева
1002.1 1001.8
18 10.06 штиль 0 2500 м мгла 3/0
[Ac trans]
+28.2 +26.0 88 +42 +42 опасность
перегрева
1002.5 1002.2
18 11.06 штиль 0 3000 м мгла ясно +28.0 +26.0 89 +42 +42 опасность
перегрева
1001.6 1001.3
06 12.06 Ю 2 3500 м мгла 3/0
[Ac trans]
+33.8 +27.0 68 +52 +72 опасность
перегрева
1001.6 1001.4
12 12.06 ЮЗ 3 3500 м мгла ясно +31.0 +28.0 84 +51 +51 опасность
перегрева
999.7 999.4 +34.2
15 12.06 штиль 0 2500 м мгла 3/3 480 м
[Sc]
+30.2 +27.0 83 +47 +47 опасность
перегрева
1000.5 1000.3
18 12.06 штиль 0 2500 м мгла 5/5 480 м
[Sc]
+29.4 +27.0 87 +46 +46 опасность
перегрева
1000.3 1000.1
21 12.06 штиль 0 2500 м мгла 3/0
[Ac trans]
+28.5 +27.0 92 +45 +45 опасность
перегрева
999.0 998.8
06 13.06 штиль 0 2000 м слаб. дождь 10/6 420 м
[Cb cap As op]
+31.0 +28.0 84 +51 +53 опасность
перегрева
999.6 999.4 0.0
09 13.06 ЮВ 3 2000 м слаб. дождь 10/6 570 м
[Cb cap As op]
+29.0 +27.0 89 +46 +47 опасность
перегрева
998.4 998.2 3
12 13.06 штиль 0 2000 м слаб. дождь 10/6 240 м
[Cb cap As op]
+29.5 +27.0 86 +46 +46 опасность
перегрева
997.8 997.6 3
15 13.06 ЮВ 2 2000 м слаб. дождь 10/6 210 м
[Cb calv As op]
+27.2 +26.0 93 +41 +41 опасность
перегрева
1000.4 1000.1 3
18 13.06 Ю 2 1500 м слаб. дождь 10/6 210 м
[Cb calv As op]
+26.4 +25.0 92 +38 +38 очень
душно
1000.4 1000.1 5
21 13.06 Ю 1 1500 м дождь 10/6 210 м
[Cb calv As op]
+26.6 +26.0 97 +40 +40 очень
душно
999.8 999.5 15
00 14.06 штиль 0 2000 м дождь 10/6 210 м
[Cb calv As op]
+26.8 +26.0 95 +40 +40 очень
душно
999.1 998.8 30
03 14.06 штиль 0 2000 м слаб. дождь 10/6 240 м
[Cb cap As op]
+28.0 +27.0 94 +44 +45 опасность
перегрева
1001.3 1001.0 +26.3 21
06 14.06 Ю 3 2000 м слаб. дождь 10/5 420 м
[Cb calv As op]
+32.0 +28.0 79 +52 +54 опасность
перегрева
1000.5 1000.2 21
09 14.06 Ю 1 3000 м мгла 8/4 480 м
[Sc Ac trans]
+32.6 +29.0 81 +56 +61 опасность
перегрева
998.3 998.1
12 14.06 Ю 3 3000 м мгла 9/5 480 м
[Sc Ac trans]
+29.7 +26.0 81 +45 +45 опасность
перегрева
998.2 997.9 +32.6 1
15 14.06 штиль 0 2000 м слаб. дождь 10/6 420 м
[Cb cap As op]
+27.2 +25.0 88 +39 +39 очень
душно
1000.6 1000.3 0.0
18 14.06 штиль 0 2000 м мгла {дождь} 10/5 480 м
[Cb calv As op]
+27.0 +25.0 89 +39 +39 очень
душно
1001.6 1001.3 0.0
21 14.06 ЮВ 3 2000 м мгла 10/5 480 м
[Cb calv As op]
+26.5 +25.0 91 +38 +38 очень
душно
1001.0 1000.7
00 15.06 ЮВ 3 2500 м мгла 10/5 480 м
[Cb calv As op]
+26.8 +25.0 90 +39 +39 очень
душно
1000.3 1000.1 26
03 15.06 ЮВ 1 3000 м мгла 9/5 480 м
[Sc Ac trans]
+29.6 +26.0 81 +44 +48 опасность
перегрева
1001.7 1001.4 +26.2
06 15.06 ЮВ 1 3000 м мгла 9/5 480 м
[Sc Ac trans]
+31.5 +26.0 73 +47 +54 опасность
перегрева
1001.4 1001.1
09 15.06 Ю 3 2000 м слаб. дождь 10/6 240 м
[Cb calv As op]
+31.8 +29.0 85 +55 +56 опасность
перегрева
999.3 999.1 2
12 15.06 ЮВ 3 2000 м слаб. дождь 10/8 420 м
[Cb cap As op Ci fib]
+25.5 +24.0 91 +35 +35 очень
душно
1000.5 1000.2 +32.5 4
15 15.06 штиль 0 2500 м мгла {дождь} 9/5 480 м
[Sc Ac trans]
+26.2 +23.0 83 +35 +35 очень
душно
1000.8 1000.6 0.0
18 15.06 штиль 0 2500 м мгла {дождь} 3/0
[Ac trans]
+26.0 +23.0 84 +35 +35 очень
душно
1001.0 1000.8 0.0

 

Местоположение метеостанции Кокс-Базар (Бангладеш): широта 21.43 долгота 91.93 высота над уровнем моря 4 м.

В архиве по умолчанию представлена погода в Кокс-Базаре за последнюю неделю. Архивные данные за месяц целиком и за предыдущие месяцы, начиная с января 2011 года, Вы можете получить, выбрав интересующий диапазон дат из раскрывающегося списка и нажав кнопку "Ввод!".


*Определитесь, кто Вы:
робот инопланетянин человек

Внимание! Время в таблицах - всемирное. Для получения местного времени необходимо прибавить поправку, которая равна 6.5 ч.

Смотрите также архив погоды в соседних городах и на ближайших метеорологических станциях:

Погода в Кутапдии (Бангладеш) (44 км)
Погода в Текнафе (Бангладеш) (73 км)
Погода в Читтагонге (Бангладеш) (94 км)
Погода в Кяуктаве (Мьянма) (97 км)
Погода в Рангамати (Бангладеш) (125 км)
Погода в Сандвипе (Бангладеш) (128 км)
Погода в Ситакунду (Бангладеш) (130 км)
Погода в Хатии (Бангладеш) (140 км)
Погода в Ситтво (Мьянма) (175 км)
Погода в Маиидиcурте (Бангладеш) (182 км)

Пояснения к столбцам:

Ветер - указаны скорость ветра в м/с - средняя за 10 мин, порывы в срок и между сроками (в фигурных скобках) и направление, откуда дует ветер: С - северный, СВ - северо-восточный, В - восточный, ЮВ - юго-восточный, Ю - южный, ЮЗ - юго-западный, З - западный, СЗ - северо-западный.
Видимость - горизонтальная дальность видимости в метрах или километрах. При видимости от 1 до 10 км при отсутствии осадков обычно наблюдается дымка, при ухудшении видимости до 1 км и менее - туман. В сухую погоду видимость может ухудшаться дымом, пылью или мглою.
Явления - указаны атмосферные явления, наблюдавшиеся в срок или в последний час перед сроком; фигурными скобками обозначены явления, наблюдавшиеся между сроками (за 1-3 часа до срока); квадратными скобками обозначены град или гололедные отложения с указанием их диаметра в мм.
Облачность - указаны через наклонную черту общая и нижняя облачность в баллах и высота нижней границы облаков в метрах; квадратными скобками обозначены формы облаков: Ci - перистые, Cs - перисто-слоистые, Cc - перисто-кучевые, Ac - высококучевые, As - высокослоистые, Sc - слоисто-кучевые, Ns - слоисто-дождевые, Cu - кучевые, Cb - кучево-дождевые. Подробнее классификацию облаков см. в Атласе облаков (PDF).
T - Температура воздуха - температура, измеренная на высоте 2 м над землей.
Td - Температура точки росы - температура, при понижении до которой содержащийся в воздухе водяной пар достигнет насыщения.
f - Относительная влажность воздуха - влажноcть воздуха, измеренная на высоте 2 м над землей.
Te - Эффективная температура - температура, которую ощущает одетый по сезону человек в тени. Характеристика душности погоды. При расчете учитывается влияние влажности воздуха и скорости ветра на теплоощущения человека.
Tes - Эффективная температура на солнце - температура, которую ощущает человек, с поправкой на солнечный нагрев. Характеристика знойности погоды. Зависит от высоты солнца над горизонтом, облачности и скорости ветра. Ночью, в пасмурную погоду, а также при ветре 12 м/с и более поправка равна нулю.
P - Атмосферное давление - приведенное к уровню моря атмосферное давление.
Po - Атмосферное давление - измеренное на уровне метеостанции атмосферное давление.
Tmin - Минимальная температура - минимум температуры воздуха на высоте 2 м над землей.
Tmax - Максимальная температура - максимум температуры воздуха на высоте 2 м над землей.
R - Количество осадков - Количество выпавших осадков за период времени, мм. При наведении курсора мыши на число - период времени, за который выпало указанное количество осадков.
R24 - Количество осадков - Количество выпавших осадков за 24 часа, мм.
S - Снежный покров - Высота снежного покрова, см. При наведении курсора мыши на число - состояние снежного покрова и степень покрытия местности в баллах.